STARLINK-3071, 49147

Orbit data source: Space-Track

STARLINK-3071, 49147 is a payload satellite owned by SpaceX/Seattle (US) in LEO that was launched on Tue, 14 Sep 2021 UTC via an FALCON 9 launch vehicle from the Air Force Western Test Range (AFWTR). Payload-class satellites include a variety of spacecraft equipped with specific instruments for various scientific and technological missions. These include communications satellites like Starlink; space stations such as the ISS; scientific satellites like the Hubble; Earth observation satellites from companies like Planet Labs, Umbra, and HawkEye 360; GPS; miniature CubeSats for education and research; and military/defense satellites.

Loading next visibility...
Identifier
49147, 2021-082T
Orbit
LEO
Country
Flag of USUS
Related business
Manufacturer
SpaceX/Seattle
Mission
Operational Commercial Communications
Bus & Motor
STARLINK, Unknown motor
Mass
297 kg wet, ~275 kg dry
Launch date (UTC)
2021-09-14 (4 years ago)
Launch vehicle
FALCON 9
Launch site
Air Force Western Test Range (AFWTR)
Object type
Payload
Rocket body
Debris
Shape & HBR
Box + 1 Pan, 10.1 m
Radar Cross Section
13.562 m², Large (>1 m²)

Expand to show TLE details & history
Last TLE update: 20 hours ago

TLE from 20 hours ago
0 STARLINK-3071
1 49147U 21082T   25286.32417088  .00000067  00000-0  13447-4 0  9990
2 49147  69.9983 266.0162 0002758 269.4567  90.6276 14.98335341224891
Epoch: 2025-10-13T07:46Z
TLE epoch observation values (Epoch: 2025-10-13T07:46:48.364Z)
Latitude
-0°
Longitude
127.1861°
Altitude
574.485 km
Speed
7.574 km/s
True Right ascension
17h 44m 03s
True Declination
0° 00' 00"
Sunlit
Object was in daylight at epoch
Visualization orbit readout
Latitude
Unknown
Longitude
Unknown
Altitude
Unknown
Speed
Unknown
Apparent Right ascension
Unknown
Apparent Declination
Unknown
Sunlit
N/A
Visualization observer readout
Local Sidereal Time
22:27:48
Azimuth
Unknown
Elevation
Unknown
Doppler factor
Unknown
Orbital elements
Apogee altitude
571.904 km
Perigee altitude
568.071 km
Semi-major axis
6,948.125 km
Eccentricity
0.00028
Inclination
69.9983°
RAAN
266.0162°
Arg. of periapsis
269.4567°
True anomaly
90.6592°
Mean anomaly
90.6276°
Eccentric anomaly
90.6434°
Mean motion
3.7475 °/min
Orbital period
96.06 mins
BSTAR
0.000013447
Loading maneuver chart data...
Computing Atmospheric mass density...
Loading historical data...
Loading historical data...
Loading historical data...
Loading historical data...
Loading historical data...
Loading historical data...
Loading historical data...

Documentation

Showing up to 5 results
|